Weather History for Pittsburgh, PA

Change the Weather History Date:

Wednesday, February 15, 2012

  Actual Average Record
Temperature  
Mean Temperature 37 °F 31 °F  
Max Temperature 41 °F 39 °F 69 °F (1954)
Min Temperature 33 °F 23 °F -10 °F (1875)
Degree Days  
Heating Degree Days 28 34  
Month to date heating degree days 489 527  
Since 1 July heating degree days 3317 3836  
Cooling Degree Days 0 0  
Month to date cooling degree days 0 0  
Year to date cooling degree days 0 0  
Moisture  
Dew Point 29 °F    
Average Humidity 78    
Maximum Humidity 96    
Minimum Humidity 60    
Precipitation  
Precipitation T in 0.09 in 1.19 in (1989)
Month to date precipitation 0.71 1.29  
Year to date precipitation 4.56 3.99  
Snow  
Snow T in 0.40 in 5.50 in (1894)
Month to date snowfall 8.8 5.5  
Since 1 July snowfall 27.4 27.8  
Snow Depth 0.00 in    
Sea Level Pressure  
Sea Level Pressure 30.21 in    
Wind  
Wind Speed 5 mph (SW)    
Max Wind Speed 8 mph    
Max Gust Speed -    
Visibility 8 miles    
Events Rain , Snow    
T = Trace of Precipitation, MM = Missing Value Source: NWS Daily Summary

Daily Weather History Graph

Daily Weather History Graph

Search for Another Location

Airport:

Trip Planner

Search our weather history database for the weather conditions in past years. The results will help you decide how hot, cold, wet, or windy it might be!

Date:

Astronomy

Feb. 15, 2012 Rise Set
Actual Time 7:15 AM EST 5:55 PM EST
Civil Twilight 6:47 AM EST 6:23 PM EST
Nautical Twilight 6:15 AM EST 6:55 PM EST
Astronomical Twilight 5:43 AM EST 7:27 PM EST
Moon 2:07 AM EST (2/15) 11:48 AM EST (2/15)
Length of Visible Light 11h 36m
Length of Day
10h 40m
Last Quarter, 39% of the Moon is Illuminated
Feb 15
Last Quarter
Feb 21
New
Feb 29
First Quarter
Mar 8
Full
Mar 14
Last Quarter

Hourly Weather History & Observations

Time (EST) Temp. Windchill Dew Point Humidity Pressure Visibility Wind Dir Wind Speed Gust Speed Precip Events Conditions
12:51 AM 34.0 °F 29.8 °F 32.0 °F 92% 30.10 in 7.0 mi WSW 4.6 mph - 0.00 in Snow Light Snow
1:18 AM 33.8 °F 27.7 °F 32.0 °F 93% 30.05 in 8.0 mi West 6.9 mph - 0.00 in Snow Light Snow
1:51 AM 34.0 °F 28.8 °F 32.0 °F 92% 30.12 in 7.0 mi WSW 5.8 mph - 0.00 in Snow Light Snow
2:06 AM 33.8 °F 27.7 °F 32.0 °F 93% 30.07 in 7.0 mi West 6.9 mph - 0.00 in Snow Light Snow
2:51 AM 34.0 °F 28.8 °F 30.9 °F 89% 30.14 in 6.0 mi WSW 5.8 mph - 0.00 in Rain , Snow Light Snow
3:25 AM 33.8 °F 27.7 °F 30.2 °F 87% 30.09 in 6.0 mi West 6.9 mph - 0.00 in Snow Light Snow
3:51 AM 33.1 °F 26.9 °F 30.9 °F 92% 30.16 in 6.0 mi West 6.9 mph - 0.00 in Snow Light Snow
4:12 AM 33.8 °F 27.7 °F 30.2 °F 87% 30.11 in 6.0 mi West 6.9 mph - N/A Snow Light Snow
4:51 AM 33.1 °F 26.1 °F 30.0 °F 89% 30.18 in 6.0 mi West 8.1 mph - 0.00 in Snow Light Snow
5:37 AM 33.8 °F 27.7 °F 30.2 °F 87% 30.14 in 5.0 mi West 6.9 mph - 0.00 in   Overcast
5:51 AM 33.1 °F 26.9 °F 30.0 °F 89% 30.21 in 6.0 mi West 6.9 mph - 0.00 in   Overcast
6:12 AM 33.8 °F 28.6 °F 30.2 °F 87% 30.16 in 5.0 mi West 5.8 mph - 0.00 in Snow Light Snow
6:51 AM 33.1 °F 28.7 °F 30.0 °F 89% 30.24 in 6.0 mi West 4.6 mph - 0.00 in   Overcast
7:51 AM 33.1 °F 30.0 °F 28.9 °F 85% 30.28 in 5.0 mi WSW 3.5 mph - N/A   Overcast
8:51 AM 33.1 °F 30.0 °F 28.9 °F 85% 30.30 in 5.0 mi WSW 3.5 mph - N/A   Overcast
9:51 AM 34.0 °F 28.8 °F 28.0 °F 79% 30.30 in 9.0 mi West 5.8 mph - N/A   Overcast
10:51 AM 34.0 °F 27.2 °F 26.1 °F 73% 30.32 in 8.0 mi SW 8.1 mph - N/A   Overcast
11:51 AM 34.0 °F 29.8 °F 26.1 °F 73% 30.32 in 10.0 mi Variable 4.6 mph - N/A   Overcast
12:51 PM 36.0 °F 31.1 °F 27.0 °F 70% 30.29 in 10.0 mi South 5.8 mph - N/A   Overcast
1:51 PM 37.0 °F 31.0 °F 27.0 °F 67% 30.27 in 10.0 mi SSW 8.1 mph - N/A   Mostly Cloudy
2:51 PM 39.0 °F 33.4 °F 28.0 °F 65% 30.27 in 10.0 mi South 8.1 mph - N/A   Mostly Cloudy
3:14 PM 39.2 °F 33.0 °F 28.4 °F 65% 30.22 in 10.0 mi SSW 9.2 mph - N/A   Mostly Cloudy
3:51 PM 39.9 °F 35.1 °F 28.0 °F 63% 30.26 in 10.0 mi South 6.9 mph - N/A   Mostly Cloudy
4:51 PM 41.0 °F 37.1 °F 28.9 °F 62% 30.27 in 10.0 mi South 5.8 mph - N/A   Mostly Cloudy
5:51 PM 39.0 °F 35.7 °F 28.9 °F 67% 30.25 in 10.0 mi ESE 4.6 mph - N/A   Mostly Cloudy
6:51 PM 37.9 °F 35.5 °F 28.9 °F 70% 30.27 in 10.0 mi SE 3.5 mph - N/A   Mostly Cloudy
7:51 PM 37.0 °F 34.5 °F 30.0 °F 76% 30.26 in 10.0 mi ESE 3.5 mph - N/A   Overcast
8:51 PM 37.9 °F - 30.0 °F 73% 30.25 in 10.0 mi Calm Calm - N/A   Overcast
9:51 PM 37.0 °F 34.5 °F 30.0 °F 76% 30.24 in 10.0 mi ESE 3.5 mph - N/A   Overcast
10:51 PM 37.0 °F 32.4 °F 30.0 °F 76% 30.22 in 10.0 mi ESE 5.8 mph - N/A   Overcast
11:51 PM 37.0 °F 34.5 °F 30.0 °F 76% 30.20 in 10.0 mi ESE 3.5 mph - N/A   Overcast